Fort Morgan, CO

11:52 PM MDT on April 24, 2017 (GMT -0600)
Fort Morgan

Weather History for KFMM - March, 2014

Change the Weather History Date:

Sunday, March 30, 2014

  Actual Average (KAKO) Record (KAKO)
Temperature  
Mean Temperature 54 °F -  
Max Temperature 73 °F 53 °F 84 °F (2010)
Min Temperature 36 °F 25 °F 6 °F (1987)
Degree Days  
Heating Degree Days 10    
Growing Degree Days 4 (Base 50)    
Moisture  
Dew Point 19 °F    
Average Humidity 30    
Maximum Humidity 61    
Minimum Humidity 11    
Precipitation  
Precipitation 0.00 in - - ()
Sea Level Pressure  
Sea Level Pressure 29.68 in    
Wind  
Wind Speed 8 mph (SSW)    
Max Wind Speed 46 mph    
Max Gust Speed 60 mph    
Visibility 10 miles    
Events      
Averages and records for this station are not official NWS values.
T = Trace of Precipitation, MM = Missing Value Source: NWS Daily Summary

Daily Weather History Graph

Daily Weather History Graph

Search for Another Location

Airport or City:

Trip Planner

Search our weather history database for the weather conditions in past years. The results will help you decide how hot, cold, wet, or windy it might be!

Date:

Astronomy

Mar. 30, 2014 Rise Set
Actual Time 6:42 AM MDT 7:17 PM MDT
Civil Twilight 6:14 AM MDT 7:45 PM MDT
Nautical Twilight 5:42 AM MDT 8:17 PM MDT
Astronomical Twilight 5:09 AM MDT 8:50 PM MDT
Moon 6:29 AM MDT (3/30) 7:33 PM MDT (3/30)
Length of Visible Light 13h 30m
Length of Day
12h 35m
Waning Crescent, 0% of the Moon is Illuminated
Mar 30
Waning Crescent
Mar 30
New
Apr 7
First Quarter
Apr 15
Full
Apr 22
Last Quarter

Hourly Weather History & Observations

Time (MDT) Temp. Windchill Dew Point Humidity Pressure Visibility Wind Dir Wind Speed Gust Speed Precip Events Conditions
12:15 AM 55.4 °F - 7.0 °F 14% 29.89 in 10.0 mi Calm Calm - N/A   Clear
12:35 AM 47.5 °F - 14.9 °F 27% 29.89 in 10.0 mi Calm Calm - N/A   Clear
12:55 AM 50.5 °F - 10.8 °F 20% 29.88 in 10.0 mi West 3.5 mph - N/A   Clear
1:15 AM 48.4 °F - 13.3 °F 24% 29.88 in 10.0 mi WSW 4.6 mph - N/A   Clear
1:35 AM 44.2 °F 41.0 °F 16.2 °F 32% 29.88 in 10.0 mi West 5.8 mph - N/A   Clear
1:55 AM 39.2 °F 34.2 °F 23.9 °F 54% 29.88 in 10.0 mi West 6.9 mph - N/A   Clear
2:15 AM 39.9 °F 35.8 °F 23.2 °F 51% 29.88 in 10.0 mi NW 5.8 mph - N/A   Clear
2:35 AM 41.5 °F 37.8 °F 20.3 °F 43% 29.87 in 10.0 mi WNW 5.8 mph - N/A   Clear
2:55 AM 40.1 °F 36.1 °F 18.5 °F 42% 29.87 in 10.0 mi WNW 5.8 mph - N/A   Clear
3:15 AM 42.8 °F 40.1 °F 16.9 °F 35% 29.85 in 10.0 mi West 4.6 mph - N/A   Clear
3:35 AM 41.5 °F 37.8 °F 18.7 °F 40% 29.85 in 10.0 mi West 5.8 mph - N/A   Clear
3:55 AM 41.4 °F - 18.3 °F 40% 29.85 in 10.0 mi Calm Calm - N/A   Clear
4:15 AM 39.4 °F 37.2 °F 19.9 °F 46% 29.84 in 10.0 mi SSW 3.5 mph - N/A   Clear
4:35 AM 36.9 °F 31.4 °F 22.8 °F 57% 29.84 in 10.0 mi West 6.9 mph - N/A   Clear
4:55 AM 37.6 °F 32.3 °F 22.8 °F 55% 29.83 in 10.0 mi West 6.9 mph - N/A   Clear
5:15 AM 38.5 °F 35.0 °F 21.7 °F 51% 29.83 in 10.0 mi SSW 4.6 mph - N/A   Clear
5:35 AM 37.6 °F - 23.0 °F 56% 29.84 in 10.0 mi Calm Calm - N/A   Clear
5:55 AM 37.2 °F - 22.8 °F 56% 29.84 in 10.0 mi Calm Calm - N/A   Clear
6:15 AM 38.7 °F - 22.6 °F 53% 29.83 in 10.0 mi North - - N/A   Clear
6:35 AM 36.7 °F - 23.4 °F 59% 29.83 in 10.0 mi Calm Calm - N/A   Clear
6:55 AM 39.2 °F - 21.2 °F 49% 29.83 in 10.0 mi Calm Calm - N/A   Clear
7:15 AM 39.7 °F 35.6 °F 21.2 °F 48% 29.83 in 10.0 mi West 5.8 mph - N/A   Clear
7:35 AM 39.4 °F - 22.1 °F 50% 29.83 in 10.0 mi Calm Calm - N/A   Clear
7:55 AM 39.2 °F - 23.7 °F 54% 29.82 in 10.0 mi Calm Calm - N/A   Clear
8:15 AM 40.1 °F - 27.7 °F 61% 29.82 in 10.0 mi Calm Calm - N/A   Clear
8:35 AM 41.5 °F - 25.2 °F 52% 29.81 in 7.0 mi Calm Calm - N/A   Clear
8:55 AM 44.2 °F - 25.2 °F 47% 29.81 in 10.0 mi Calm Calm - N/A   Clear
9:15 AM 48.2 °F - 22.1 °F 36% 29.81 in 10.0 mi Calm Calm - N/A   Clear
9:35 AM 48.7 °F - 22.8 °F 36% 29.80 in 10.0 mi Calm Calm - N/A   Clear
9:55 AM 50.0 °F - 23.5 °F 36% 29.79 in 10.0 mi Calm Calm - N/A   Clear
10:15 AM 52.0 °F - 23.0 °F 32% 29.79 in 10.0 mi ESE 4.6 mph - N/A   Clear
10:35 AM 54.1 °F - 26.2 °F 34% 29.77 in 10.0 mi East 5.8 mph - N/A   Clear
10:55 AM 56.7 °F - 25.7 °F 30% 29.77 in 10.0 mi East 8.1 mph - N/A   Clear
11:15 AM 61.0 °F - 21.6 °F 22% 29.76 in 10.0 mi East 6.9 mph - N/A   Clear
11:35 AM 63.3 °F - 20.1 °F 19% 29.74 in 10.0 mi ESE 8.1 mph - N/A   Clear
11:55 AM 65.7 °F - 23.0 °F 20% 29.74 in 10.0 mi Calm Calm - N/A   Clear
12:15 PM 67.1 °F - 23.2 °F 19% 29.72 in 10.0 mi SE 5.8 mph - N/A   Clear
12:35 PM 68.2 °F - 25.3 °F 20% 29.70 in 10.0 mi East 6.9 mph - N/A   Clear
12:55 PM 70.2 °F - 21.7 °F 16% 29.69 in 10.0 mi SE 5.8 mph - N/A   Clear
1:15 PM 70.7 °F - 19.0 °F 14% 29.67 in 10.0 mi SSE 9.2 mph - N/A   Clear
1:35 PM 71.4 °F - 16.9 °F 13% 29.65 in 10.0 mi South 16.1 mph 23.0 mph N/A   Clear
1:55 PM 72.7 °F - 15.1 °F 11% 29.64 in 10.0 mi SSW 13.8 mph 24.2 mph N/A   Clear
2:15 PM 72.0 °F - 15.3 °F 12% 29.63 in 10.0 mi SSW 12.7 mph 23.0 mph N/A   Clear
2:35 PM 70.9 °F - 15.1 °F 12% 29.61 in 10.0 mi South 15.0 mph 20.7 mph N/A   Clear
2:55 PM 70.2 °F - 15.3 °F 12% 29.61 in 10.0 mi SSW 17.3 mph 24.2 mph N/A   Clear
3:15 PM 69.8 °F - 15.3 °F 12% 29.59 in 10.0 mi South 12.7 mph - N/A   Clear
3:35 PM 70.0 °F - 15.4 °F 12% 29.58 in 10.0 mi South 18.4 mph 24.2 mph N/A   Clear
3:55 PM 71.1 °F - 15.8 °F 12% 29.57 in 10.0 mi South 17.3 mph - N/A   Clear
4:15 PM 73.2 °F - 15.3 °F 11% 29.54 in 10.0 mi South 23.0 mph 29.9 mph N/A   Clear
4:35 PM 70.9 °F - 14.9 °F 12% 29.54 in 10.0 mi South 24.2 mph 31.1 mph N/A   Clear
4:55 PM 70.2 °F - 15.1 °F 12% 29.52 in 10.0 mi South 23.0 mph 29.9 mph N/A   Clear
5:15 PM 69.8 °F - 14.4 °F 12% 29.51 in 10.0 mi South 20.7 mph 32.2 mph N/A   Clear
5:35 PM 69.1 °F - 15.4 °F 13% 29.50 in 10.0 mi South 18.4 mph - N/A   Clear
5:55 PM 68.9 °F - 15.4 °F 13% 29.48 in 10.0 mi South 19.6 mph 24.2 mph N/A   Clear
6:15 PM 68.9 °F - 14.7 °F 12% 29.47 in 10.0 mi SSW 25.3 mph 33.4 mph N/A   Clear
6:35 PM 69.4 °F - 12.9 °F 11% 29.46 in 10.0 mi South 25.3 mph 40.3 mph N/A   Clear
6:55 PM 68.5 °F - 12.7 °F 12% 29.46 in 10.0 mi SSW 27.6 mph 36.8 mph N/A   Clear
7:15 PM 65.3 °F - 13.3 °F 13% 29.46 in 10.0 mi SSW 24.2 mph 28.8 mph N/A   Clear
7:35 PM 64.2 °F - 12.4 °F 13% 29.46 in 10.0 mi SSW 25.3 mph 34.5 mph N/A   Clear
7:55 PM 63.3 °F - 11.3 °F 13% 29.46 in 10.0 mi SW 25.3 mph 34.5 mph N/A   Clear
8:15 PM 61.9 °F - 12.6 °F 15% 29.46 in 10.0 mi SW 19.6 mph 29.9 mph N/A   Clear
8:35 PM 59.0 °F - 14.7 °F 18% 29.47 in 10.0 mi SW 9.2 mph 21.9 mph N/A   Clear
8:55 PM 59.2 °F - 15.8 °F 18% 29.46 in 10.0 mi SW 17.3 mph 24.2 mph N/A   Clear
9:15 PM 61.0 °F - 16.0 °F 17% 29.45 in 10.0 mi SW 21.9 mph 32.2 mph N/A   Clear
9:35 PM 59.2 °F - 17.4 °F 20% 29.46 in 10.0 mi SW 21.9 mph 32.2 mph N/A   Clear
9:55 PM 57.2 °F - 18.3 °F 22% 29.46 in 10.0 mi WSW 19.6 mph 24.2 mph N/A   Clear
10:15 PM 55.0 °F - 20.3 °F 26% 29.47 in 10.0 mi WSW 16.1 mph - N/A   Clear
10:35 PM 55.4 °F - 25.2 °F 31% 29.47 in 10.0 mi West 27.6 mph 35.7 mph N/A   Clear
10:55 PM 54.5 °F - 26.4 °F 34% 29.50 in 10.0 mi West 39.1 mph 47.2 mph N/A   Clear
11:15 PM 47.5 °F - 31.1 °F 53% 29.52 in 3.0 mi West 46.0 mph 59.8 mph N/A   Haze
11:35 PM 45.0 °F 35.8 °F 32.0 °F 60% 29.52 in 7.0 mi West 26.5 mph 40.3 mph N/A   Scattered Clouds
11:55 PM 45.5 °F 38.1 °F 30.4 °F 56% 29.50 in 10.0 mi WSW 18.4 mph - N/A   Scattered Clouds